Regional Weather Roundup
Issued by NWS

Home | Current Version | Previous Version | Graphics & Text | Print | Product List | Glossary On
Versions: 1 2 3 4 5 6 7 8 9 10 11 12 13 14 15 16 17 18 19 20 21 22 23 24 25 26 27 28 29 30 31 32 33 34 35 36 37 38 39 40 41 42 43 44 45 46 47 48 49 50
674
ASUS45 KBOU 210107
RWRCO

WEATHER ROUNDUP FOR COLORADO
NATIONAL WEATHER SERVICE DENVER/BOULDER CO
600 PM MST MON FEB 20 2017

NOTE: "FAIR" INDICATES FEW OR NO CLOUDS BELOW 12000 FEET WITH NO
SIGNIFICANT WEATHER AND/OR OBSTRUCTIONS TO VISIBILITY.

COZ001>005-013-030-031-210200-
...NORTHWEST COLORADO...

CITY           SKY/WX    TMP DP  RH WIND       PRES   REMARKS
CRAIG          FAIR      42  31  64 CALM      30.12S
HAYDEN         CLOUDY    39  25  56 SE12      30.12F
MEEKER         FAIR      45  31  58 S7        30.14R
MOUNT WERNER   NOT AVBL
STEAMBOAT SPGS FAIR      38  26  61 CALM      30.14R
WALDEN         NOT AVBL
$$

COZ006>008-011-210200-
...WEST CENTRAL VALLEYS...

CITY           SKY/WX    TMP DP  RH WIND       PRES   REMARKS
GRAND JUNCTION FAIR      46  39  76 NW8       30.15R
MONTROSE       FAIR      50  30  46 NW7       30.18R
EAGLE          PTCLDY    46  28  49 W6        30.18S
RIFLE          MOCLDY    50  34  54 CALM      30.15R
DELTA          FAIR      52  34  50 N5        30.16S
NUCLA          FAIR      46  30  53 SW8       30.25R
$$

COZ017>023-064>068-210200-
...SOUTHWEST COLORADO...

CITY           SKY/WX    TMP DP  RH WIND       PRES   REMARKS
DURANGO        FAIR      46  29  51 SW10      30.24R
CORTEZ         FAIR      47  33  58 CALM      30.25R
PAGOSA SPRINGS FAIR      36  26  68 NE3       30.28R
TELLURIDE      FAIR      40  23  51 W5        30.28R
WOLF CREEK PAS FAIR      21  21 100 SW12      30.40R WCI   9
$$

COZ009-010-012-014-032>034-037-058>063-210200-
...CENTRAL COLORADO...

CITY           SKY/WX    TMP DP  RH WIND       PRES   REMARKS
ASPEN          FAIR      39  22  50 SW3       30.17S
BUENA VISTA    FAIR      43  11  27 NW10G29   30.18R
COPPER MTN     MOCLDY    27  12  54 S8        30.28S WCI  18
BERTHOUD PASS  FAIR      19   9  63 W18G25    30.27S WCI   4
COTTONWOOD PAS FAIR      39   3  22 SW23G32   30.23R
GUNNISON       FAIR      32  25  75 E8        30.26R WCI  25
KREMMLING      FAIR      45  23  42 SW17      30.17F
LEADVILLE      FAIR      30  13  49 E5        30.22R WCI  25
MONARCH PASS   MOCLDY    25  12  58 W26       30.41R WCI   9
SALIDA         FAIR      48  11  22 W22G30    30.24R
SUNLIGHT       NOT AVBL
WILKERSON PASS FAIR      30   7  37 NW10G16   30.26S WCI  21
$$

COZ069>075-210200-
...SAN LUIS VALLEY/SANGRE DE CRISTO MOUNTAINS...

CITY           SKY/WX    TMP DP  RH WIND       PRES   REMARKS
ALAMOSA        FAIR      41  25  53 S6        30.22R
LA VETA PASS   FAIR      32  14  47 NE26G35   30.24R WCI  18
SAGUACHE       FAIR      39  18  41 NW7       30.22S
$$

COZ035-036-038>040-210200-
...NORTHERN COLORADO FRONT RANGE...

CITY           SKY/WX    TMP DP  RH WIND       PRES   REMARKS
DENVER INTL AP FAIR      54  15  21 W9        30.02R
DMNS CITY PARK   N/A     56  13  18 NE3G14    30.01R
AURORA         PTCLDY    51  14  22 E8        30.04R
FRONT RANGE AP PTCLDY    55  16  21 CALM      30.04R
ERIE MUNI ARPT FAIR      53  14  20 W5        30.00S
BOULDER MUN AP FAIR      54  18  24 NE5       30.00R
CENTENNIAL     FAIR      54  10  17 SE5       30.04R
BROOMFIELD     PTCLDY    55  12  18 W6G17     30.01R
FORT COLLINS   FAIR      52  22  30 W9        29.99R
LONGMONT       FAIR      56  18  22 NW9       30.01S
$$

COZ041-046-047-076>085-087-088-210200-
...PIKES PEAK/PALMER DIVIDE AND SOUTHERN FOOTHILLS...

CITY           SKY/WX    TMP DP  RH WIND       PRES   REMARKS
COLO. SPRINGS  FAIR      50   4  15 SE12      30.09R
A. F. ACADEMY  FAIR      49   6  17 SE9       30.08R
SCHRIEVER AFB  FAIR      48   4  16 S7        30.10R
ELLICOTT       FAIR     N/A N/A N/A MISG      30.08R
FALCON         FAIR      45   3  17 S8        30.12R
FORT CARSON    FAIR      51   7  16 S13       30.07R
LIMON          FAIR      40  17  39 CALM      30.05R HAZE
MONUMENT HILL  FAIR      43   9  24 E5        30.11R
TRINIDAD       FAIR      53  10  18 W6        30.09R
$$

COZ042>045-048>051-090-091-210200-
...NORTHEAST COLORADO...

CITY           SKY/WX    TMP DP  RH WIND       PRES   REMARKS
GREELEY ARPT   FAIR      54  20  26 SW9       30.00R
AKRON          FAIR      48  15  26 SW9       30.01R
BURLINGTON     FAIR      48  13  24 NE3       30.03R
WRAY           NOT AVBL
STERLING       FAIR      55  19  24 NE3       29.97R
HOLYOKE        FAIR      46  10  23 S5        29.98R
FORT MORGAN    FAIR      54  11  18 CALM      30.00R
$$

COZ086-089-092>099-210200-
...SOUTHEAST COLORADO...

CITY           SKY/WX    TMP DP  RH WIND       PRES   REMARKS
PUEBLO         FAIR      55   8  15 E6        30.03R
LA JUNTA       FAIR      58  10  15 S6        30.03R
LAMAR          FAIR      54  11  18 NE7       30.02R
SPRINGFIELD      N/A     45   8  22 N6        30.06R
$$




USA.gov is the U.S. government's official web portal to all federal, state and local government web resources and services.